Location: Newark
(47.5989°N, 4.6950°E)
Time: 03:40:18
(UTC+00:00)

Envisat - Pass Details

Date: 19 November 2019
Orbit: 764 x 766 km, 98.1° (Epoch: 10 December)

Event Time Altitude Azimuth Distance (km) Brightness Sun altitude
Rises 05:58:14 0° 20° (NNE) 3,243 6.3 -9.1°
Reaches altitude 10° 06:00:43 10° 29° (NNE) 2,312 5.6 -8.7°
Maximum altitude 06:05:26 37° 96° (E) 1,178 4.8 -7.9°
Drops below altitude 10° 06:10:06 10° 164° (SSE) 2,295 6.0 -7.2°
Sets 06:12:34 0° 172° (S) 3,216 6.7 -6.8°
